BEL24D GBYD-GOBD

Flight info

Callsign BEL24D
Flight time 0h 21m
Altitude 12000
Route BIDAV BIDAV1A
Aircraft A333/H-SDE3GHIJ2J3J5M1RVWXY/LB2D1

Departure

Time 2026-04-29 19:27
Airport Banjul International Airport (GBYD)

Arrival

Time 2026-04-29 19:48
Airport Blaise Diagne International Airport (GOBD)
Time Latitude Longitude Altitude Speed Heading
2026-04-29 19:11 13.34119 -16.65138 108 ft 0 kts 131°
2026-04-29 19:20 13.34119 -16.65137 108 ft 0 kts 131°
2026-04-29 19:21 13.34103 -16.65119 108 ft 6 kts 131°
2026-04-29 19:21 13.34059 -16.65100 108 ft 8 kts 200°
2026-04-29 19:21 13.33995 -16.65142 108 ft 13 kts 213°
2026-04-29 19:21 13.33911 -16.65217 105 ft 18 kts 224°
2026-04-29 19:22 13.33805 -16.65250 105 ft 17 kts 149°
2026-04-29 19:22 13.33730 -16.65157 105 ft 16 kts 129°
2026-04-29 19:22 13.33655 -16.65068 105 ft 16 kts 132°
2026-04-29 19:22 13.33578 -16.64982 104 ft 16 kts 132°
2026-04-29 19:23 13.33499 -16.64888 102 ft 19 kts 130°
2026-04-29 19:23 13.33406 -16.64776 102 ft 21 kts 130°
2026-04-29 19:23 13.33301 -16.64650 101 ft 24 kts 130°
2026-04-29 19:23 13.33181 -16.64508 99 ft 27 kts 130°
2026-04-29 19:24 13.33050 -16.64352 98 ft 30 kts 131°
2026-04-29 19:24 13.32916 -16.64195 96 ft 17 kts 130°
2026-04-29 19:24 13.32873 -16.64095 94 ft 17 kts 87°
2026-04-29 19:24 13.32868 -16.63969 93 ft 17 kts 127°
2026-04-29 19:25 13.32760 -16.63950 92 ft 12 kts 202°
2026-04-29 19:25 13.32753 -16.63995 92 ft 6 kts 308°
2026-04-29 19:25 13.32758 -16.64002 92 ft 0 kts 309°
2026-04-29 19:26 13.32775 -16.64023 93 ft 13 kts 309°
2026-04-29 19:26 13.32996 -16.64290 98 ft 86 kts 310°
2026-04-29 19:26 13.33545 -16.64944 104 ft 151 kts 310°
2026-04-29 19:26 13.34323 -16.65836 434 ft 177 kts 310°
2026-04-29 19:27 13.35168 -16.66641 1418 ft 164 kts 322°
2026-04-29 19:27 13.35857 -16.67556 2179 ft 169 kts 307°
2026-04-29 19:27 13.36703 -16.68423 2694 ft 180 kts 326°
2026-04-29 19:27 13.37795 -16.69190 2996 ft 199 kts 329°
2026-04-29 19:28 13.39034 -16.69987 3383 ft 222 kts 330°
2026-04-29 19:28 13.40419 -16.70838 3912 ft 239 kts 330°
2026-04-29 19:28 13.41894 -16.71728 4430 ft 257 kts 331°
2026-04-29 19:28 13.43497 -16.72690 5059 ft 271 kts 331°
2026-04-29 19:29 13.45133 -16.73669 5832 ft 277 kts 330°
2026-04-29 19:29 13.46864 -16.74703 6369 ft 294 kts 330°
2026-04-29 19:29 13.48694 -16.75799 6819 ft 314 kts 330°
2026-04-29 19:29 13.50602 -16.76941 7495 ft 323 kts 330°
2026-04-29 19:30 13.52548 -16.78106 8409 ft 323 kts 329°
2026-04-29 19:30 13.54466 -16.79254 9305 ft 323 kts 329°
2026-04-29 19:30 13.56420 -16.80424 10163 ft 323 kts 329°
2026-04-29 19:30 13.58319 -16.81560 11064 ft 317 kts 329°
2026-04-29 19:31 13.60203 -16.82689 11857 ft 310 kts 328°
2026-04-29 19:31 13.62088 -16.83819 11873 ft 315 kts 328°
2026-04-29 19:31 13.63974 -16.84949 11866 ft 311 kts 328°
2026-04-29 19:31 13.65849 -16.86073 11861 ft 312 kts 329°
2026-04-29 19:32 13.67752 -16.87214 11871 ft 312 kts 328°
2026-04-29 19:32 13.69624 -16.88335 11889 ft 313 kts 328°
2026-04-29 19:32 13.71508 -16.89462 11904 ft 312 kts 328°
2026-04-29 19:32 13.73382 -16.90587 11880 ft 312 kts 328°
2026-04-29 19:33 13.75275 -16.91722 11670 ft 314 kts 328°
2026-04-29 19:33 13.77174 -16.92861 11420 ft 315 kts 329°
2026-04-29 19:33 13.79045 -16.93981 11203 ft 313 kts 329°
2026-04-29 19:33 13.80939 -16.95118 10969 ft 314 kts 329°
2026-04-29 19:34 13.82840 -16.96258 10733 ft 316 kts 329°
2026-04-29 19:34 13.84747 -16.97404 10498 ft 316 kts 329°
2026-04-29 19:34 13.86650 -16.98546 10256 ft 316 kts 329°
2026-04-29 19:34 13.88564 -16.99695 9999 ft 317 kts 329°
2026-04-29 19:35 13.90460 -17.00834 9789 ft 318 kts 329°
2026-04-29 19:35 13.92378 -17.01986 9554 ft 318 kts 329°
2026-04-29 19:35 13.94306 -17.03146 9315 ft 317 kts 329°
2026-04-29 19:35 13.96210 -17.04290 9070 ft 317 kts 329°
2026-04-29 19:36 13.98120 -17.05438 8745 ft 317 kts 329°
2026-04-29 19:36 14.00072 -17.06418 8717 ft 302 kts 345°
2026-04-29 19:36 14.02090 -17.06649 8569 ft 285 kts 359°
2026-04-29 19:36 14.04008 -17.06674 8441 ft 268 kts 359°
2026-04-29 19:37 14.05821 -17.06698 8357 ft 256 kts 359°
2026-04-29 19:37 14.07013 -17.06712 8330 ft 253 kts 359°
2026-04-29 19:37 14.09389 -17.06738 8228 ft 255 kts 359°
2026-04-29 19:37 14.11161 -17.06756 8045 ft 254 kts 359°
2026-04-29 19:38 14.12949 -17.06774 7887 ft 253 kts 359°
2026-04-29 19:38 14.14704 -17.06790 7686 ft 252 kts 359°
2026-04-29 19:38 14.16455 -17.06807 7485 ft 250 kts 359°
2026-04-29 19:38 14.18206 -17.06823 7278 ft 250 kts 359°
2026-04-29 19:39 14.19937 -17.06839 7068 ft 250 kts 359°
2026-04-29 19:39 14.21673 -17.06856 6855 ft 248 kts 359°
2026-04-29 19:39 14.23399 -17.06871 6641 ft 248 kts 359°
2026-04-29 19:39 14.25140 -17.06888 6421 ft 248 kts 359°
2026-04-29 19:40 14.26876 -17.06905 6195 ft 247 kts 360°
2026-04-29 19:40 14.28573 -17.06921 6003 ft 244 kts 360°
2026-04-29 19:40 14.30265 -17.06935 5942 ft 239 kts 359°
2026-04-29 19:40 14.31944 -17.06949 5900 ft 242 kts 359°
2026-04-29 19:41 14.33617 -17.06968 5817 ft 239 kts 359°
2026-04-29 19:41 14.35297 -17.06983 5740 ft 239 kts 359°
2026-04-29 19:41 14.36970 -17.07002 5661 ft 239 kts 359°
2026-04-29 19:41 14.38670 -17.07019 5404 ft 244 kts 359°
2026-04-29 19:42 14.40339 -17.07031 5040 ft 236 kts 359°
2026-04-29 19:42 14.41410 -17.07040 4849 ft 225 kts 359°
2026-04-29 19:42 14.43431 -17.07058 4444 ft 209 kts 359°
2026-04-29 19:42 14.44853 -17.07072 4178 ft 198 kts 359°
2026-04-29 19:43 14.46207 -17.07085 3920 ft 190 kts 359°
2026-04-29 19:43 14.47533 -17.07097 3692 ft 188 kts 359°
2026-04-29 19:43 14.48841 -17.07110 3484 ft 185 kts 359°
2026-04-29 19:43 14.50083 -17.07122 3333 ft 174 kts 359°
2026-04-29 19:44 14.51286 -17.07132 3055 ft 169 kts 359°
2026-04-29 19:44 14.52449 -17.07142 2841 ft 160 kts 358°
2026-04-29 19:44 14.53514 -17.07152 2642 ft 150 kts 358°
2026-04-29 19:44 14.54550 -17.07163 2420 ft 148 kts 358°
2026-04-29 19:45 14.55577 -17.07173 2218 ft 146 kts 358°
2026-04-29 19:45 14.56582 -17.07182 2025 ft 141 kts 358°
2026-04-29 19:45 14.57550 -17.07192 1833 ft 138 kts 358°
2026-04-29 19:45 14.58521 -17.07201 1646 ft 138 kts 359°
2026-04-29 19:46 14.59475 -17.07210 1467 ft 137 kts 358°
2026-04-29 19:46 14.60443 -17.07219 1284 ft 137 kts 359°
2026-04-29 19:46 14.61398 -17.07228 1104 ft 138 kts 359°
2026-04-29 19:46 14.62364 -17.07237 921 ft 137 kts 359°
2026-04-29 19:47 14.63326 -17.07247 741 ft 137 kts 359°
2026-04-29 19:47 14.64276 -17.07256 565 ft 137 kts 359°
2026-04-29 19:47 14.65240 -17.07263 389 ft 137 kts 359°
2026-04-29 19:47 14.66163 -17.07267 307 ft 112 kts 357°
2026-04-29 19:48 14.66650 -17.07278 309 ft 38 kts 359°
2026-04-29 19:48 14.66803 -17.07278 311 ft 28 kts 360°
2026-04-29 19:48 14.67003 -17.07280 314 ft 14 kts 359°
2026-04-29 19:48 14.67065 -17.07250 313 ft 6 kts 51°
2026-04-29 19:49 14.67076 -17.07224 312 ft 1 kts 73°
2026-04-29 19:49 14.67081 -17.07174 310 ft 19 kts 88°
2026-04-29 19:49 14.67079 -17.07034 306 ft 13 kts 90°
2026-04-29 19:49 14.67025 -17.06978 307 ft 11 kts 173°
2026-04-29 19:50 14.66951 -17.06975 309 ft 8 kts 165°
2026-04-29 19:50 14.66935 -17.06927 308 ft 8 kts 62°
2026-04-29 19:50 14.66964 -17.06876 306 ft 4 kts 62°
2026-04-29 19:50 14.66977 -17.06851 305 ft 2 kts 62°
2026-04-29 19:51 14.66983 -17.06840 305 ft 0 kts 62°